CZ-4B DEB, 29537

Orbit data source: Space-Track

CZ-4B DEB, 29537 is space debris in SSO originally from a launch on Wed, 26 Apr 2006 UTC launched from the Taiyaun Space Center, China (TSC). Debris objects in space refer to the collection of defunct objects orbiting the Earth. Examples of debris include non-operational satellites, rocket bodies, and fragments generated from explosions, collisions, or faulty payload assembly.

Loading next visibility...
Identifier
29537, 2006-015D
Orbit
SSO
Country
Flag of CNCN / PRC
Related business
Manufacturer
SAST
Mission
Spacecraft
Bus & Motor
Unknown
Mass
Unknown
Launch date (UTC)
2006-04-26 (20 years ago)
Launch vehicle
Unknown
Launch site
Taiyaun Space Center, China (TSC)
Object type
Payload
Rocket body
Debris
Shape & HBR
Unknown shape, 0.1 m
Radar Cross Section
Small (<0.1 m²)

Expand to show TLE details & history
Last TLE update: 13 hours ago

TLE from 13 hours ago
0 CZ-4B DEB
1 29537U 06015D   26071.25007397  .00008801  00000-0  11811-2 0  9998
2 29537  97.7846  84.3593 0120060  72.5627 288.8666 14.74609965 47566
Epoch: 2026-03-12T06:00Z
TLE epoch observation values (Epoch: 2026-03-12T06:00:06.391Z)
Latitude
-0.00008°
Longitude
-175.56997°
Altitude
623.043 km
Speed
7.561 km/s
True Right ascension
05h 37m 26s
True Declination
0° 00' 00"
Sunlit
Object was in daylight at epoch
Visualization orbit readout
Latitude
Unknown
Longitude
Unknown
Altitude
Unknown
Speed
Unknown
Apparent Right ascension
Unknown
Apparent Declination
Unknown
Sunlit
N/A
Visualization observer readout
Local Sidereal Time
23:21:46
Azimuth
Unknown
Elevation
Unknown
Doppler factor
Unknown
Orbital elements
Apogee altitude
727.733 km
Perigee altitude
559.131 km
Semi-major axis
7,021.569 km
Eccentricity
0.01201
Inclination
97.7846°
RAAN
84.3593°
Arg. of periapsis
72.5627°
True anomaly
287.5585°
Mean anomaly
288.8666°
Eccentric anomaly
288.21317°
Mean motion
3.68886 °/min
Orbital period
97.59 mins
BSTAR
0.0011811
Loading maneuver chart data...
Computing Atmospheric mass density...
Loading historical data...
Loading historical data...
Loading historical data...
Loading historical data...
Loading historical data...
Loading historical data...
Loading historical data...

Documentation

Showing up to 5 results
|